Theta_e
309 309 309 309 309 309 309 310 310 310 310 310 311 311 312 312 313 313 313 313 313 313 312 312 313 313 314 315 317 316 307 308 311 311 314 314 313 315 315 314 315 315 315 314 314
309 309 309 309 309 309 309 310 310 310 311 311 311 312 312 313 313 313 314 312 312 313 312 312 312 314 314 316 317 311 306 308 309 311 314 314 314 314 314 312 314 314 314 314 314
309 309 309 309 309 310 310 310 311 311 311 311 312 312 312 313 314 313 312 311 312 311 311 313 314 314 314 315 316 312 309 309 313 314 314 314 313 314 313 312 313 313 314 313 314
308 309 309 309 310 310 311 311 311 311 311 311 312 312 313 314 311 313 312 312 312 311 312 314 314 314 313 312 314 315 314 313 314 315 315 313 314 314 313 315 313 313 313 313 313
309 310 310 311 311 311 311 311 311 310 310 311 312 315 317 317 316 316 314 313 313 312 312 313 313 313 312 312 312 313 313 313 314 313 313 313 312 312 313 312 312 312 313 313 313
311 311 311 311 311 310 310 309 310 311 313 316 318 319 318 316 319 318 317 315 314 313 312 313 313 313 313 312 311 311 311 312 313 313 312 311 310 312 311 312 312 312 312 312 312
314 314 314 313 313 313 313 314 315 316 317 318 318 318 318 319 319 318 318 317 316 313 311 312 312 313 313 312 312 312 311 308 310 310 310 311 310 309 311 311 311 311 311 311 311
315 315 315 316 317 317 317 317 317 317 317 317 317 318 317 318 317 318 317 317 315 312 311 312 312 313 313 312 310 310 308 310 311 310 311 311 311 311 310 311 309 309 309 309 309
316 315 315 314 314 314 314 315 315 315 316 317 318 318 317 316 316 316 315 315 314 313 313 313 313 313 312 308 308 307 311 309 309 310 311 310 311 311 310 309 307 306 306 306 306
316 315 315 314 314 314 314 314 315 315 316 318 319 317 317 316 315 314 314 313 312 312 312 312 312 307 306 307 311 310 309 308 309 311 310 311 310 309 306 307 304 303 303 303 304
319 318 316 315 314 314 314 315 317 318 318 317 317 317 316 316 314 312 312 311 311 311 308 310 307 308 309 307 309 309 308 309 308 309 311 310 310 308 304 304 302 301 300 301 302
322 320 320 318 315 314 314 316 318 317 318 317 318 318 317 314 313 311 311 311 311 309 307 308 307 307 307 307 308 308 309 308 308 309 309 309 309 304 302 301 301 300 299 300 301
324 323 323 322 318 316 315 315 318 320 318 320 317 317 318 317 314 312 311 311 310 309 308 310 312 308 309 308 308 307 308 308 311 310 308 308 308 306 302 300 299 299 299 300 301
325 324 324 323 320 320 318 316 317 321 315 315 316 317 318 318 313 316 311 312 309 310 309 309 309 310 309 310 308 310 308 310 312 311 313 308 311 308 303 301 299 298 299 300 300
324 324 324 323 321 320 319 318 320 319 323 315 314 312 315 317 312 310 310 310 309 310 310 314 310 309 311 311 309 311 309 310 309 307 308 308 308 307 303 302 299 298 299 299 299
323 323 323 322 320 320 319 319 321 318 323 316 309 308 312 309 308 308 310 311 311 310 310 311 309 309 309 309 309 306 307 306 305 306 310 308 308 309 305 304 300 298 299 299 298
322 322 323 323 321 321 319 321 319 320 317 314 310 307 311 307 307 308 308 308 311 313 311 310 309 308 308 308 307 307 308 312 310 310 313 308 309 309 305 303 301 299 299 298 297
323 322 322 323 323 322 320 318 318 317 319 309 308 306 310 307 307 307 307 309 307 308 308 312 313 309 307 308 308 307 309 311 310 311 312 308 312 311 302 301 302 300 300 298 297
321 322 323 324 323 321 317 320 321 316 318 311 309 308 307 307 306 307 306 308 309 305 311 310 312 308 307 308 308 308 310 308 306 292 304 308 308 304 301 299 299 299 299 298 297
320 322 321 322 322 319 319 320 318 316 316 310 316 311 309 307 307 307 306 306 309 306 308 311 315 309 308 308 306 308 306 311 307 307 307 308 308 308 303 300 298 298 298 298 297
320 319 320 321 320 318 321 318 318 316 318 312 316 314 309 308 307 307 308 309 308 307 308 309 312 311 309 309 309 308 308 307 308 306 305 303 305 303 304 301 300 299 299 299 298
319 318 318 320 318 317 319 318 317 315 317 318 318 317 314 313 311 309 309 312 309 308 310 309 310 307 309 306 305 307 307 307 309 307 304 305 308 302 303 301 301 300 300 300 299
317 317 316 317 320 319 316 317 316 315 316 318 319 317 316 316 317 315 314 312 311 310 311 311 314 315 313 308 306 308 306 306 306 304 305 306 307 302 301 300 301 300 301 300 299
313 312 311 312 313 317 318 317 316 315 316 317 317 316 316 317 315 315 315 309 309 311 314 311 311 314 312 311 307 308 307 306 308 309 308 309 307 305 302 300 300 301 302 301 300
310 309 308 309 312 311 314 315 316 316 313 316 316 317 317 317 316 314 314 307 305 309 310 311 313 311 309 306 307 304 303 306 308 310 312 311 307 304 303 301 301 302 301 301 299
306 305 303 303 304 309 311 311 315 315 313 315 317 315 316 315 312 311 311 309 309 303 307 306 312 309 306 301 304 307 307 305 307 306 305 302 303 301 300 301 300 299 298 298 299
304 304 304 304 303 307 309 309 308 309 306 304 305 310 313 311 309 308 309 309 308 305 305 305 303 306 308 296 298 305 303 303 305 302 304 305 304 294 294 294 296 297 296 297 297
Wind_Speed
5 4 4 4 5 5 6 6 7 8 8 9 10 11 11 12 13 14 13 8 6 6 5 4 4 2 1 2 3 2 4 1 4 6 2 3 5 1 5 4 2 4 8 11 15
7 7 7 7 7 7 7 8 9 9 9 10 11 12 13 14 15 16 7 5 4 4 4 5 3 2 2 2 2 4 3 6 4 3 1 4 2 7 5 5 4 5 11 9 7
9 9 9 9 8 9 9 9 10 11 11 12 13 13 14 14 15 3 0 1 1 3 6 6 4 1 1 0 0 2 4 3 2 6 5 3 4 2 3 5 2 8 18 9 6
11 11 11 11 11 11 11 11 12 12 13 13 14 13 13 11 4 2 2 2 2 4 5 5 2 0 1 1 2 1 5 5 3 1 3 2 4 5 7 14 10 15 6 4 3
13 13 13 13 13 13 13 13 13 13 13 13 13 13 12 8 9 11 9 8 7 7 8 7 5 2 2 2 2 3 3 4 9 11 11 10 12 8 21 18 1 4 4 5 6
15 15 15 15 15 15 14 14 14 13 13 13 13 13 12 8 10 10 10 11 11 10 11 8 3 5 2 2 3 1 5 10 11 17 11 6 3 1 7 6 6 3 3 4 7
16 16 15 15 16 16 15 15 15 15 15 15 14 13 14 21 13 10 11 11 10 10 11 10 8 5 3 1 2 2 5 7 8 4 4 5 1 7 0 4 7 6 5 6 7
15 16 16 16 16 17 17 15 16 16 15 14 14 12 11 14 15 16 18 15 10 9 9 8 7 7 3 1 4 3 4 4 4 1 1 5 7 2 9 13 7 5 4 4 6
14 15 15 16 16 16 16 16 15 16 16 14 13 9 10 13 13 15 14 13 13 11 9 7 7 4 4 5 4 4 3 4 8 2 2 3 6 4 16 14 7 6 6 7 7
15 15 14 14 16 18 16 15 15 16 16 15 15 6 15 8 7 8 12 12 8 10 7 7 4 3 2 4 6 6 4 4 5 1 3 1 7 8 19 11 11 10 10 10 11
17 15 14 14 14 15 14 13 10 8 13 12 5 6 4 10 9 8 12 13 9 8 6 4 4 9 14 9 2 5 4 5 4 3 1 6 6 5 11 13 12 12 13 15 17
18 17 15 14 14 15 14 8 7 5 10 16 24 26 21 9 7 13 15 13 8 5 7 3 7 10 4 5 4 2 3 6 4 4 5 5 6 3 8 5 7 13 16 18 22
19 18 17 16 16 17 18 16 12 7 6 10 23 24 31 26 14 17 21 11 5 6 8 8 4 8 6 4 5 5 6 5 6 4 2 3 5 4 5 12 13 12 15 18 22
22 21 21 20 19 21 22 12 14 4 4 6 6 7 12 13 8 18 24 11 4 11 7 7 5 6 5 6 9 5 8 6 4 3 4 2 4 2 4 4 6 12 15 17 19
25 20 23 28 19 15 10 11 8 5 6 1 4 5 10 10 9 4 18 8 7 7 6 7 7 5 7 8 7 6 5 6 4 4 1 2 0 5 6 5 5 11 16 17 18
32 28 25 28 28 22 14 9 16 4 10 3 4 5 5 2 2 5 5 5 4 5 2 5 2 7 8 3 7 9 6 6 5 3 1 7 6 4 5 6 7 13 17 19 19
29 31 29 30 34 28 21 19 3 6 0 5 5 5 3 5 2 3 5 6 6 5 6 1 5 3 4 5 2 4 7 1 2 1 5 1 3 7 5 4 13 21 25 22 20
30 32 31 36 33 31 25 5 6 7 7 3 4 4 7 7 4 5 6 5 6 3 3 7 4 10 7 6 7 6 7 5 6 3 3 1 6 5 0 3 17 31 30 25 22
30 28 34 38 38 38 26 7 9 7 6 9 4 4 5 5 6 4 7 6 9 11 8 6 5 1 3 4 6 5 4 3 7 1 3 4 4 2 2 3 14 25 29 28 24
27 32 36 38 37 39 11 14 8 7 5 4 13 9 9 7 7 8 10 6 6 12 5 5 2 1 2 5 4 4 7 3 2 2 4 4 5 5 7 9 8 15 26 29 24
26 16 18 33 31 18 8 6 7 10 10 7 13 8 7 8 9 6 7 2 5 6 10 5 4 1 4 6 9 3 3 2 4 4 5 2 5 5 9 14 18 23 31 31 27
27 6 12 24 13 4 13 6 8 7 20 5 2 5 10 12 9 8 11 4 9 11 9 6 4 4 7 1 1 2 7 7 5 5 3 3 7 2 5 17 25 25 33 31 27
13 15 15 29 8 10 2 7 9 7 9 9 13 8 2 7 3 3 5 2 11 7 8 6 3 2 2 1 1 5 5 4 4 4 8 5 5 4 7 11 19 25 31 28 26
9 3 8 18 6 11 15 9 9 10 5 11 5 6 6 9 7 8 8 3 6 3 8 7 5 6 6 4 1 5 6 5 6 5 5 11 3 3 5 8 16 24 27 25 26
10 3 5 3 11 3 2 8 11 9 10 13 4 16 15 7 9 7 9 4 1 9 9 9 8 7 3 1 3 2 4 7 9 11 9 11 9 8 11 12 24 25 20 22 25
7 4 5 2 2 6 7 4 11 13 8 7 15 13 15 11 11 9 14 6 5 3 7 2 3 5 5 2 2 5 15 9 13 6 6 2 7 4 7 13 20 21 19 21 23
9 6 5 6 3 4 4 6 5 2 3 5 4 1 11 10 1 7 8 11 10 9 7 6 5 4 3 2 3 6 17 16 7 5 8 10 9 6 4 10 23 20 19 21 22
Wind_Direction
264 271 275 280 289 295 299 302 305 311 314 313 313 314 315 315 313 311 311 294 266 244 241 239 221 229 332 62 45 88 61 189 226 162 239 349 11 333 322 261 292 296 317 316 310
265 268 269 274 278 283 289 294 300 301 303 305 307 309 312 314 314 308 292 284 267 238 204 180 174 120 80 59 27 81 109 223 215 206 233 316 307 320 333 317 287 304 334 325 303
266 266 267 269 273 278 282 286 290 293 297 301 304 307 310 318 321 330 197 34 116 163 161 155 145 34 78 268 208 132 192 227 279 237 283 289 294 259 292 309 292 341 321 331 274
266 269 270 272 273 276 277 280 283 287 292 295 298 302 305 312 310 303 224 216 201 190 187 191 218 52 83 246 197 301 247 231 282 296 306 283 301 285 246 270 302 323 354 80 53
264 268 272 275 277 278 279 281 283 285 288 291 295 299 304 288 263 270 259 252 254 242 226 224 239 193 184 206 180 185 279 264 278 281 280 276 268 267 282 304 290 128 59 38 15
264 266 269 273 274 276 279 279 280 285 288 290 291 291 290 265 266 264 260 256 256 250 237 232 236 224 192 201 177 319 289 289 290 280 273 237 282 158 87 62 79 81 39 7 353
260 262 264 267 273 273 273 277 278 279 282 287 288 287 274 265 266 262 262 257 250 242 238 230 230 199 176 285 278 326 330 329 266 279 235 172 222 231 36 42 40 20 8 358 3
262 263 264 266 267 272 273 273 275 278 279 283 285 284 262 265 254 253 252 248 237 229 226 228 219 216 206 168 21 29 48 355 286 156 104 156 265 65 49 8 47 36 36 32 25
264 268 270 271 270 267 270 275 275 277 279 279 280 264 265 257 252 245 237 234 231 225 215 198 180 171 146 102 12 6 235 213 314 190 125 161 256 238 347 12 81 66 60 65 65
262 264 268 273 275 272 271 272 277 277 272 275 256 267 240 242 231 228 216 211 199 190 171 176 165 100 69 115 221 198 210 232 238 13 76 280 275 300 14 43 91 88 83 77 67
261 264 265 268 273 274 274 280 281 266 237 218 237 219 242 225 223 213 199 188 170 169 164 163 133 208 205 200 158 140 185 206 243 229 119 244 258 320 32 81 96 98 95 89 83
258 262 265 265 267 269 269 251 239 276 296 256 250 251 248 230 205 204 189 179 176 177 122 78 227 223 136 175 191 200 184 246 287 261 170 265 254 73 44 53 105 115 107 103 103
256 255 258 264 264 262 262 255 255 288 264 259 246 243 241 233 227 204 191 194 165 147 191 182 218 154 161 168 187 211 203 209 224 335 282 327 283 173 63 91 101 107 114 113 109
252 254 252 255 258 259 257 262 243 278 287 251 218 225 202 201 226 215 201 187 187 188 173 234 240 175 171 204 187 221 201 174 182 113 234 59 278 200 135 110 90 127 129 123 116
244 255 252 248 239 236 247 240 202 161 274 164 160 163 164 184 141 156 186 189 166 167 148 228 175 182 199 219 156 233 137 160 147 155 71 276 37 258 140 180 172 161 147 139 128
250 257 242 240 235 238 233 194 161 122 239 230 145 164 136 168 123 114 151 150 147 130 278 237 211 165 200 164 168 144 80 49 49 81 284 227 179 249 191 185 160 177 166 154 143
243 254 249 240 232 226 218 173 155 202 135 195 188 164 156 162 160 151 161 166 160 141 222 235 221 203 154 99 87 107 107 217 351 345 227 136 151 244 171 165 173 176 176 166 156
248 249 246 237 245 236 191 176 192 198 215 95 104 102 183 160 207 165 131 189 242 129 128 172 254 167 186 190 172 183 165 158 207 204 239 321 231 257 314 273 197 179 172 169 165
256 250 251 242 232 227 184 209 212 165 193 140 111 158 228 225 152 143 195 204 198 180 188 172 271 221 138 141 141 182 187 167 105 57 57 224 276 228 114 91 148 166 175 178 173
244 251 249 245 240 210 211 212 215 183 131 162 198 183 191 201 160 183 179 202 207 183 174 215 180 222 144 104 43 163 160 95 19 174 248 271 268 235 204 188 176 173 183 185 180
238 239 245 252 232 207 216 234 208 212 197 183 212 195 197 178 183 197 203 240 196 172 170 164 136 279 130 205 174 154 181 68 127 154 175 238 250 215 196 184 184 187 191 188 186
225 216 222 211 192 221 214 181 193 198 216 228 306 226 182 173 178 206 203 241 173 150 162 183 142 178 201 160 336 239 196 163 160 212 233 158 256 8 240 180 183 189 195 193 194
218 217 196 196 217 229 186 217 198 178 199 195 223 225 151 179 181 188 176 166 167 152 157 180 149 176 323 45 359 223 200 175 97 76 198 150 253 25 112 151 184 187 196 197 198
203 211 197 211 246 243 221 209 205 203 215 205 202 171 167 190 198 175 190 167 192 125 154 118 172 193 194 162 89 197 195 184 163 199 186 231 249 219 170 176 187 196 196 199 204
209 219 188 205 231 235 289 177 197 206 220 207 234 210 192 197 185 190 187 132 60 169 163 172 201 191 174 177 124 240 248 190 202 227 219 248 209 201 194 190 191 183 185 198 205
198 171 177 167 214 190 206 191 222 209 170 207 224 208 217 209 191 185 173 182 181 194 167 180 199 154 169 110 220 230 248 223 229 226 259 173 256 198 171 180 178 193 199 206 205
219 196 166 176 169 182 203 190 211 346 114 71 358 188 231 233 161 127 157 166 154 157 167 161 135 131 195 121 154 255 236 209 190 176 179 210 229 151 182 190 197 206 205 202 198